User: anonymous   Login
Location: Unspecified
(0.0000°N, 0.0000°E)
Time: 15:02:58
(UTC+01:00)
Language:

Hubble Space Telescope - Orbit

View from above orbital plane
View from above orbital plane
View from above satellite
View from above satellite

Ground track
Ground track

The orbit data is extracted from the following two-line orbital elements,

1 20580U 90037B   16043.19074072  .00002058  00000-0  11870-3 0  9993
2 20580  28.4710  10.6522 0002595 294.7242 188.3758 15.08143533216075
Epoch (UTC): 12 February 2016 04:34:39
Eccentricity: 0.0002595
inclination: 28.4710°
perigee height: 540 km
apogee height: 543 km
right ascension of ascending node: 10.6522°
argument of perigee: 294.7242°
revolutions per day: 15.08143533
mean anomaly at epoch: 188.3758°
orbit number at epoch: 21607

The dashed part of the orbit path shows where the satellite is in the earth's shadow,  

DLR